727  
ASUS41 KBOX 170500  
RWRBOX  
 
REGIONAL WEATHER ROUNDUP  
NATIONAL WEATHER SERVICE BOSTON/NORTON MA  
1200 AM EST THU JAN 17 2019  
 
NOTE: "FAIR" INDICATES FEW OR NO CLOUDS BELOW 12,000 FEET WITH NO  
SIGNIFICANT WEATHER AND/OR S TO VISIBILITY
.  
 
MAZALL-170600-  
EASTERN MASSACHUSETTS  
 
CITY SKY/WX TMP DP RH WIND PRES REMARKS
 
BOSTON FAIR 33 13 43 NW9 30.14R WCI 25  
BEVERLY FAIR 29 12 49 NW12 30.13R WCI 19  
LAWRENCE FAIR 27 10 49 NW9G20 30.15R WCI 18  
BEDFORD NOT AVBL  
BLUE HILL N/A 26 13 57 W14G21 30.09R WCI 14  
NORWOOD FAIR 32 13 45 W9 30.14R WCI 24  
MARSHFIELD NOT AVBL  
PLYMOUTH FAIR 30 16 56 W8 30.12R WCI 22  
TAUNTON FAIR 32 13 45 W7G17 30.14R WCI 26  
NEW BEDFORD FAIR 31 17 56 W12 30.13R WCI 22  

 
 
MAZALL-170600-  
CAPE COD AND THE ISLANDS  
 
CITY SKY/WX TMP DP RH WIND PRES REMARKS
 
FALMOUTH FAIR 28 18 64 W9 30.12R WCI 20  
HYANNIS NOT AVBL  
CHATHAM FAIR 33 19 56 NW9 30.11R WCI 25  
PROVINCETOWN FAIR 35 18 49 NW21 30.11R WCI 24  
NANTUCKET FAIR 34 23 64 W12 30.11R WCI 25  
MARTHAS VNYRD FAIR 34 19 54 NW9G22 30.13R WCI 27  

 
 
MAZALL-170600-  
CENTRAL AND WESTERN MASSACHUSETTS  
 
CITY SKY/WX TMP DP RH WIND PRES REMARKS
 
WORCESTER FAIR 24 11 57 W13G20 30.10R WCI 12  
FITCHBURG CLOUDY 27 9 46 NW10G21 30.15R WCI 17  
ORANGE FAIR 26 8 46 NW8G20 30.16R WCI 18  
SPRINGFIELD MOCLDY 27 11 50 NW9 30.18R WCI 18  
WESTFIELD FAIR 26 12 55 NW12 30.19R WCI 16  
NORTH ADAMS FAIR 22 6 50 W16G24 30.19R WCI 8  
PITTSFIELD MOCLDY 22 10 60 W12G17 30.14R WCI 10  

 
 
RIZALL-170600-  
RHODE ISLAND  
 
CITY SKY/WX TMP DP RH WIND PRES REMARKS
 
PROVIDENCE FAIR 30 13 49 W7 30.16R WCI 23  
NEWPORT FAIR 32 14 47 NW15 30.15R WCI 22  
BLOCK ISLAND FAIR 34 17 50 NW16G24 30.17R WCI 24  
SMITHFIELD FAIR 28 12 51 W10 30.13R WCI 19  
WESTERLY FAIR 34 16 47 NW8 30.18R WCI 27  

 
 
CTZALL-170600-  
CONNECTICUT  
 
CITY SKY/WX TMP DP RH WIND PRES REMARKS
 
BRADLEY INTL FAIR 26 11 52 NW12 30.21R WCI 16  
HARTFORD FAIR 29 10 45 NW10 30.22R WCI 20  
BRIDGEPORT FAIR 32 14 47 N9 30.21R WCI 24  
DANBURY FAIR 28 10 46 N8 30.21R WCI 20  
GROTON NOT AVBL  
NEW HAVEN FAIR 33 10 38 N8 30.20R WCI 26  
CHESTER FAIR 30 12 47 N10G17 30.18R WCI 21  
MERIDEN FAIR 29 11 47 NW10G20 30.21R WCI 20  
WILLIMANTIC FAIR 29 13 51 NW10G17 30.19R WCI 20  
OXFORD FAIR 26 12 55 N14G20 30.18R WCI 14  

 
 
MEZ002-015-021-024-NHZ003-005-008-011-012-014-VTZ005-008-170600-  
NORTHERN NEW ENGLAND  
 
CITY SKY/WX TMP DP RH WIND PRES REMARKS
 
PORTLAND ME FAIR 23 5 46 NW14G23 30.12R WCI 11  
BANGOR ME FAIR 15 -1 49 NW14G23 30.08R WCI 0  
CONCORD NH FAIR 19 4 51 NW13G21 30.16R WCI 6  
MANCHESTER NH FAIR 26 7 44 NW15G22 30.14R WCI 14  
NASHUA NH FAIR 27 10 49 NW15 30.15R WCI 15  
PORTSMOUTH NH NOT AVBL  
JAFFREY NH FAIR 23 2 40 NW10G16 30.11R WCI 12  
KEENE NH NOT AVBL  
BURLINGTON VT FAIR 8 -5 55 N8 30.29R WCI -4  
MT. WASHINGTON BLWGSNOW -15 -15 100 NW63G75 N/A VSB 1/16WCI -55  

 
 
NYZ052-076-170600-  
EASTERN NEW YORK  
 
CITY SKY/WX TMP DP RH WIND PRES REMARKS
 
ALBANY FAIR 23 4 44 NW13 30.27R WCI 11  
NEW YORK CITY MOCLDY 34 15 46 N12 30.24R WCI 25  

 
 
ANZALL-170600-  
MARINE OBSERVATIONS  
 
STATION/POSITION TIME TEMP WIND PRES VSBY WAVE
 
AIR SEA DIR/SP/G HT/PER  
(UTC) (F) (DEG/KT/KT) (MB) (MI) (FT/S)  
BOSTON BUOY 0350 37 42 290/ 21/ 25 1018.1 3/ 4  
BUZZARDS BAY 0400 36 310/ 20/ 23 1020.5R  
NANTUCKET SOUND 0440 35 36 290/ 19/ 23 1019.6R  
MASS BAY-STELLWA 0404 35 41 320/ 21/ 23 1017.8R 1 7/8  
ISLE OF SHOALS 0400 30 320/ 24/ 28 1019.0R  
S OF BLOCK IS 0430 45 N/A 6/ 6  

 
   
.....................KEY......................
 
 
SKY/WX - SKY CONDITION/PRESENT WEATHER  
TMP - TEMPERATURE IN FAHRENHEIT  
DWPT - DEWPOINT IN FAHRENHEIT  
RH - RELATIVE HUMIDITY IN PERCENT  
WIND - DIRECTION AND SPEED IN MPH  
PRES - MEAN SEA LEVEL PRESSURE IN INCHES OF HG  
WCI - WIND CHILL INDEX  
VSB - VISIBILITY IN MILES  
HX - HEAT INDEX  
TC - TEMPERATURE IN CELSIUS  
VRB - VARIABLE WIND DIRECTION  
N/A - NOT AVAILABLE  
 
 
CLICK HERE TO GO TO PREVIOUS BULLETINS.

The Nexlab MA Page
The Nexlab RI Page
The Nexlab NH Page
The Nexlab CT Page Main Text Page